Weather in Spring Valley

United States     32°52′35″N   116°50′52″W
В апреле 2022 года жителям России запретили посещать сайт meteo.paraplan.net по решению Генеральной прокуратуры. Аудитория сайта уменьшилась в 10 раз. Владельцы сайта не видят смысла в поддержке погодного сервера в таких условиях. Сайт будет закрыт в октябре.
temp.,
°C
wind,
m/s
gust,
m/s
humid.,
%
clouds,
%
prec.,
mm/h
press.,
hPa
HPBL,
m
4 october, tue
tue423:00+19sw00790 0.0 101411
02:00+18e01790 0.0 101311
05:00+18ene11780 0.0 101311
08:00+24e11480 0.0 101453
11:00+29wsw33350 0.0 10131400
14:00+29wsw533614 0.0 10121318
17:00+25w225144 0.0 1012492
20:00+20ssw11712 0.0 101411
5 october, wed
wed523:00+19ese11760 0.0 101411
02:00+18e01750 0.0 101411
05:00+18ne11730 0.0 101311
08:00+23e00450 0.0 101447
11:00+29w22290 0.0 10141021
14:00+30w543021 0.0 10131661
17:00+26wsw324310 0.0 1013533
20:00+20se01660 0.0 101511
6 october, thu
thu623:00+19se01690 0.0 101511
02:00+19ne11570 0.0 101511
05:00+18sse01580 0.0 101411
08:00+23e11390 0.0 101642
11:00+29wsw32304 0.0 1015920
14:00+29w543492 0.0 1015942
17:00+27wsw323732 0.0 1014590
20:00+19s11640 0.0 101611
7 october, fri
fri723:00+19e11640 0.0 101611
02:00+18e11570 0.0 101611
05:00+19ne11470 0.0 101511
08:00+24e22310 0.0 101641
11:00+31nne03183 0.0 10152655
14:00+32ne241814 0.0 10132987
17:00+29ene022414 0.0 10131247
20:00+21e11510 0.0 101511
8 october, sat
sat823:00+20ese11504 0.0 101611
02:00+20e224748 0.0 101511
05:00+20ene225086 0.1 101512
08:00+23ene234367 0.0 101696
11:00+29ene1428100 0.0 10152139
14:00+30ne252770 0.0 10132303
17:00+25wsw324428 0.1 1014848
20:00+19s117296 0.3 101611